This is the latest recevied weather packets stored in our database for station/object K4ZZR. If no packets are shown the sender has not sent any weather packets the latest 10 day(s).
| Time | Temp. | Humidity | Pressure | Rain* | Wind** | Luminosity | Snow |
|---|---|---|---|---|---|---|---|
| 1777492310 | 28.33° C | 69% | 1013.5 hPa | 0 mm | - | 687 W/m² | - |
| 1777492007 | 28.89° C | 71% | 1013.6 hPa | 0 mm | - | 758 W/m² | - |
| 1777491704 | 27.78° C | 72% | 1013.8 hPa | 0 mm | - | 799 W/m² | - |
| 1777491402 | 27.78° C | 71% | 1013.7 hPa | 0 mm | - | 638 W/m² | - |
| 1777491099 | 27.78° C | 70% | 1013.7 hPa | 0 mm | - | 791 W/m² | - |
| 1777490794 | 27.78° C | 73% | 1013.7 hPa | 0 mm | - | 800 W/m² | - |
| 1777490491 | 27.78° C | 72% | 1014 hPa | 0 mm | - | 819 W/m² | - |
| 1777490187 | 27.78° C | 70% | 1014.1 hPa | 0 mm | - | 840 W/m² | - |
| 1777489884 | 28.33° C | 70% | 1014 hPa | 0 mm | - | 831 W/m² | - |
| 1777489582 | 27.78° C | 69% | 1014.2 hPa | 0 mm | - | 835 W/m² | - |
| 1777489278 | 27.78° C | 70% | 1014.4 hPa | 0 mm | - | 848 W/m² | - |
| 1777488975 | 27.78° C | 71% | 1014.5 hPa | 0 mm | - | 860 W/m² | - |
| 1777488672 | 27.78° C | 70% | 1014.5 hPa | 0 mm | - | 871 W/m² | - |
| 1777488370 | 27.78° C | 71% | 1014.6 hPa | 0 mm | - | 880 W/m² | - |
| 1777488069 | 27.78° C | 70% | 1014.6 hPa | 0 mm | - | 873 W/m² | - |
| 1777487766 | 27.78° C | 71% | 1014.4 hPa | 0 mm | - | 889 W/m² | - |
| 1777487464 | 27.22° C | 71% | 1014.7 hPa | 0 mm | - | 667 W/m² | - |
| 1777487161 | 27.78° C | 68% | 1014.9 hPa | 0 mm | - | 705 W/m² | - |
| 1777486856 | 27.78° C | 69% | 1015.2 hPa | 0 mm | - | 681 W/m² | - |
| 1777486554 | 28.33° C | 69% | 1015.3 hPa | 0 mm | - | 900 W/m² | - |
| 1777486251 | 27.22° C | 69% | 1015.2 hPa | 0 mm | - | 787 W/m² | - |
| 1777485949 | 27.78° C | 70% | 1015.4 hPa | 0 mm | - | 909 W/m² | - |
| 1777485644 | 27.78° C | 72% | 1015.4 hPa | 0 mm | - | 925 W/m² | - |
| 1777485339 | 28.33° C | 70% | 1015.4 hPa | 0 mm | - | 934 W/m² | - |
| 1777485036 | 27.78° C | 70% | 1015.6 hPa | 0 mm | - | 941 W/m² | - |
* Rain latest hour (hover to see other rain measurements)
** Current wind speed in m/s (hover to see current wind gust speed)